Taunton, MA

9:58 AM EST on December 18, 2017 (GMT -0500)
Taunton Municipal

Weather History for KTAN - November, 2012

Change the Weather History Date:

Tuesday, November 27, 2012

  Actual Average Record
Temperature  
Mean Temperature 30 °F -  
Max Temperature 37 °F 48 °F 64 °F (1959)
Min Temperature 24 °F 29 °F 11 °F (1974)
Degree Days  
Heating Degree Days 34    
Moisture  
Dew Point 30 °F    
Average Humidity 89    
Maximum Humidity 93    
Minimum Humidity 76    
Precipitation  
Precipitation 0.20 in - - ()
Sea Level Pressure  
Sea Level Pressure 30.27 in    
Wind  
Wind Speed 1 mph (NNE)    
Max Wind Speed 6 mph    
Max Gust Speed -    
Visibility 4 miles    
Events Rain , Snow    
Averages and records for this station are not official NWS values.
T = Trace of Precipitation, MM = Missing Value Source: NWS Daily Summary

Daily Weather History Graph

Daily Weather History Graph

Search for Another Location

Airport or City:

Trip Planner

Search our weather history database for the weather conditions in past years. The results will help you decide how hot, cold, wet, or windy it might be!

Date:

Astronomy

Nov. 27, 2012 Rise Set
Actual Time 6:48 AM EST 4:15 PM EST
Civil Twilight 6:17 AM EST 4:46 PM EST
Nautical Twilight 5:43 AM EST 5:20 PM EST
Astronomical Twilight 5:09 AM EST 5:53 PM EST
Moon 3:44 PM EST (11/27) 5:50 AM EST (11/27)
Length of Visible Light 10h 28m
Length of Day
9h 26m
Waxing Gibbous, 99% of the Moon is Illuminated
Nov 27
Waxing Gibbous
Nov 28
Full
Dec 6
Last Quarter
Dec 13
New
Dec 20
First Quarter

Hourly Weather History & Observations

Time (EST) Temp. Windchill Dew Point Humidity Pressure Visibility Wind Dir Wind Speed Gust Speed Precip Events Conditions
12:52 AM 24.1 °F - 19.9 °F 84% 30.25 in 10.0 mi Calm Calm - N/A   Clear
1:52 AM 24.1 °F - 19.9 °F 84% 30.27 in 10.0 mi Calm Calm - N/A   Clear
2:52 AM 24.1 °F - 21.0 °F 88% 30.29 in 10.0 mi Calm Calm - N/A   Scattered Clouds
3:52 AM 26.1 °F - 23.0 °F 88% 30.28 in 10.0 mi Calm Calm - N/A   Mostly Cloudy
4:52 AM 27.0 °F - 24.1 °F 89% 30.27 in 10.0 mi Calm Calm - N/A   Mostly Cloudy
5:52 AM 28.0 °F - 25.0 °F 88% 30.28 in 10.0 mi Calm Calm - N/A   Overcast
6:52 AM 28.9 °F - 26.1 °F 89% 30.30 in 10.0 mi Calm Calm - N/A   Overcast
7:52 AM 32.0 °F - 27.0 °F 82% 30.31 in 9.0 mi Calm Calm - N/A   Overcast
8:52 AM 35.1 °F - 28.0 °F 76% 30.32 in 10.0 mi Calm Calm - N/A   Overcast
9:52 AM 36.0 °F - 28.9 °F 76% 30.33 in 10.0 mi Calm Calm - N/A   Overcast
10:52 AM 37.9 °F - 32.0 °F 79% 30.32 in 9.0 mi Calm Calm - 0.00 in Rain Light Rain
11:52 AM 37.0 °F - 32.0 °F 82% 30.31 in 8.0 mi Calm Calm - 0.01 in Rain Light Rain
12:20 PM 35.1 °F - 32.0 °F 89% 30.30 in 3.0 mi Calm Calm - 0.02 in Snow Light Snow
12:52 PM 35.1 °F - 32.0 °F 89% 30.30 in 2.5 mi Calm Calm - 0.04 in Snow Light Snow
1:11 PM 35.1 °F - 32.0 °F 89% 30.29 in 2.0 mi Calm Calm - 0.01 in Snow Light Snow
1:28 PM 35.1 °F - 32.0 °F 89% 30.28 in 3.0 mi Calm Calm - 0.01 in   Overcast
1:34 PM 34.0 °F 31.0 °F 32.0 °F 92% 30.28 in 2.0 mi ENE 3.5 mph - 0.02 in Snow Light Snow
1:44 PM 34.0 °F 31.0 °F 32.0 °F 92% 30.27 in 1.8 mi ENE 3.5 mph - 0.02 in Snow Light Snow
1:50 PM 33.8 °F - 32.0 °F 93% 30.27 in 2.0 mi Calm Calm - 0.02 in Snow Light Snow
1:52 PM 34.0 °F - 32.0 °F 92% 30.28 in 2.0 mi Calm Calm - 0.02 in Snow Light Snow
2:05 PM 35.1 °F - 32.0 °F 89% 30.27 in 3.0 mi Calm Calm - 0.00 in   Overcast
2:22 PM 34.0 °F 29.8 °F 32.0 °F 92% 30.26 in 3.0 mi East 4.6 mph - 0.00 in Snow Light Snow
2:33 PM 35.1 °F - 32.0 °F 89% 30.26 in 2.0 mi Calm Calm - 0.01 in Snow Light Snow
2:44 PM 34.0 °F - 32.0 °F 92% 30.26 in 1.8 mi Calm Calm - 0.01 in Snow Light Snow
2:52 PM 34.0 °F - 32.0 °F 92% 30.27 in 1.8 mi Calm Calm - 0.01 in Snow Light Snow
3:29 PM 34.0 °F 31.0 °F 32.0 °F 92% 30.27 in 2.0 mi North 3.5 mph - 0.01 in   Overcast
3:41 PM 34.0 °F - 32.0 °F 92% 30.27 in 1.2 mi Calm Calm - 0.01 in Snow Light Snow
3:52 PM 34.0 °F - 30.9 °F 89% 30.27 in 1.0 mi Calm Calm - 0.02 in Snow Light Snow
4:20 PM 33.1 °F - 30.9 °F 92% 30.26 in 1.5 mi Calm Calm - 0.01 in Snow Light Snow
4:35 PM 33.1 °F - 30.9 °F 92% 30.25 in 2.0 mi Calm Calm - 0.01 in Snow Light Snow
4:52 PM 33.1 °F - 30.9 °F 92% 30.26 in 2.0 mi Calm Calm - 0.01 in Snow Light Snow
5:01 PM 33.1 °F 30.0 °F 30.9 °F 92% 30.25 in 1.8 mi NNE 3.5 mph - 0.01 in Snow Light Snow
5:40 PM 33.1 °F 30.0 °F 30.9 °F 92% 30.26 in 2.0 mi NNE 3.5 mph - 0.02 in Snow Light Snow
5:52 PM 33.1 °F - 30.9 °F 92% 30.26 in 1.5 mi Calm Calm - 0.02 in Snow Light Snow
6:17 PM 33.1 °F - 30.9 °F 92% 30.26 in 2.0 mi Calm Calm - 0.01 in Snow Light Snow
6:24 PM 33.1 °F - 30.9 °F 92% 30.26 in 1.8 mi Calm Calm - 0.01 in Snow Light Snow
6:39 PM 33.1 °F 30.0 °F 30.9 °F 92% 30.25 in 2.0 mi NNE 3.5 mph - 0.02 in Snow Light Snow
6:52 PM 33.1 °F 30.0 °F 30.9 °F 92% 30.25 in 2.5 mi NNE 3.5 mph - 0.02 in Snow Light Snow
7:52 PM 33.1 °F 30.0 °F 30.9 °F 92% 30.25 in 3.0 mi North 3.5 mph - 0.02 in Snow Light Snow
8:09 PM 33.1 °F - 30.9 °F 92% 30.24 in 2.5 mi Calm Calm - 0.00 in Snow Light Snow
8:17 PM 33.1 °F 30.0 °F 30.9 °F 92% 30.24 in 3.0 mi North 3.5 mph - 0.00 in Snow Light Snow
8:52 PM 34.0 °F 31.0 °F 30.9 °F 89% 30.23 in 3.0 mi North 3.5 mph - 0.01 in Snow Light Snow
9:05 PM 33.1 °F 30.0 °F 30.9 °F 92% 30.23 in 2.5 mi North 3.5 mph - 0.00 in Snow Light Snow
9:21 PM 33.1 °F 30.0 °F 30.9 °F 92% 30.23 in 3.0 mi North 3.5 mph - 0.01 in Snow Light Snow
9:52 PM 34.0 °F 29.8 °F 30.9 °F 89% 30.23 in 3.0 mi North 4.6 mph - 0.01 in Snow Light Snow
10:52 PM 34.0 °F 28.8 °F 32.0 °F 92% 30.22 in 4.0 mi North 5.8 mph - 0.01 in   Overcast
11:17 PM 34.0 °F 31.0 °F 32.0 °F 92% 30.21 in 4.0 mi North 3.5 mph - 0.00 in Rain Light Rain
11:52 PM 34.0 °F 31.0 °F 32.0 °F 92% 30.19 in 5.0 mi North 3.5 mph - 0.00 in Rain Light Rain